CXI24Y GCXO-GCFV

Flight info

Callsign CXI24Y
Flight time 0h 29m
Altitude 18000
Route GDV
Aircraft B738/M-SDE2E3FGHIRWXY/LB1

Departure

Time 2026-05-07 00:43
Airport Tenerife Norte-Ciudad de La Laguna Airport (GCXO)

Arrival

Time 2026-05-07 01:12
Airport Fuerteventura Airport (GCFV)
Time Latitude Longitude Altitude Speed Heading
2026-05-07 00:23 28.48692 -16.34737 2073 ft 0 kts 33°
2026-05-07 00:30 28.48691 -16.34737 2073 ft 0 kts 33°
2026-05-07 00:34 28.48690 -16.34739 2073 ft 2 kts 33°
2026-05-07 00:34 28.48668 -16.34755 2073 ft 4 kts 31°
2026-05-07 00:34 28.48644 -16.34770 2071 ft 4 kts 26°
2026-05-07 00:34 28.48620 -16.34781 2074 ft 4 kts 14°
2026-05-07 00:35 28.48595 -16.34783 2077 ft 4 kts 327°
2026-05-07 00:35 28.48588 -16.34774 2076 ft 1 kts 290°
2026-05-07 00:35 28.48587 -16.34772 2076 ft 1 kts 290°
2026-05-07 00:37 28.48598 -16.34806 2078 ft 11 kts 290°
2026-05-07 00:37 28.48627 -16.34893 2082 ft 12 kts 291°
2026-05-07 00:37 28.48655 -16.34979 2083 ft 11 kts 290°
2026-05-07 00:38 28.48684 -16.35066 2082 ft 12 kts 291°
2026-05-07 00:38 28.48714 -16.35156 2080 ft 12 kts 291°
2026-05-07 00:38 28.48743 -16.35245 2078 ft 12 kts 290°
2026-05-07 00:38 28.48773 -16.35338 2074 ft 13 kts 290°
2026-05-07 00:39 28.48807 -16.35435 2072 ft 13 kts 289°
2026-05-07 00:39 28.48839 -16.35532 2070 ft 14 kts 291°
2026-05-07 00:39 28.48870 -16.35627 2067 ft 11 kts 287°
2026-05-07 00:39 28.48864 -16.35716 2067 ft 12 kts 240°
2026-05-07 00:40 28.48799 -16.35742 2069 ft 11 kts 144°
2026-05-07 00:40 28.48782 -16.35710 2071 ft 0 kts 108°
2026-05-07 00:42 28.48732 -16.35553 2072 ft 54 kts 110°
2026-05-07 00:42 28.48521 -16.34915 2085 ft 119 kts 110°
2026-05-07 00:43 28.48157 -16.33810 2057 ft 175 kts 110°
2026-05-07 00:43 28.47694 -16.32466 2735 ft 180 kts 105°
2026-05-07 00:43 28.47284 -16.31106 3460 ft 193 kts 106°
2026-05-07 00:43 28.46688 -16.29618 3841 ft 212 kts 109°
2026-05-07 00:44 28.46108 -16.28082 4379 ft 218 kts 109°
2026-05-07 00:44 28.45506 -16.26406 4564 ft 240 kts 108°
2026-05-07 00:44 28.44862 -16.24584 4877 ft 258 kts 109°
2026-05-07 00:44 28.44173 -16.22625 5256 ft 274 kts 110°
2026-05-07 00:45 28.43458 -16.20583 5862 ft 282 kts 109°
2026-05-07 00:45 28.42744 -16.18535 6639 ft 285 kts 110°
2026-05-07 00:45 28.42002 -16.16408 7260 ft 291 kts 110°
2026-05-07 00:45 28.41249 -16.14243 8009 ft 295 kts 110°
2026-05-07 00:46 28.40444 -16.12090 8826 ft 297 kts 116°
2026-05-07 00:46 28.39485 -16.09982 9579 ft 302 kts 119°
2026-05-07 00:46 28.38459 -16.07851 10305 ft 307 kts 119°
2026-05-07 00:46 28.37414 -16.05695 10656 ft 328 kts 119°
2026-05-07 00:47 28.36281 -16.03343 10917 ft 348 kts 119°
2026-05-07 00:47 28.35116 -16.00904 11537 ft 355 kts 118°
2026-05-07 00:47 28.33935 -15.98416 12241 ft 360 kts 118°
2026-05-07 00:47 28.32745 -15.95895 12944 ft 365 kts 118°
2026-05-07 00:48 28.31540 -15.93336 13693 ft 369 kts 117°
2026-05-07 00:48 28.30579 -15.90635 14454 ft 369 kts 103°
2026-05-07 00:48 28.30159 -15.87791 15522 ft 361 kts 97°
2026-05-07 00:48 28.29863 -15.84998 16325 ft 357 kts 96°
2026-05-07 00:49 28.29568 -15.82171 16821 ft 355 kts 97°
2026-05-07 00:49 28.29273 -15.79384 16860 ft 362 kts 99°
2026-05-07 00:49 28.28956 -15.76487 16955 ft 374 kts 99°
2026-05-07 00:49 28.28639 -15.73641 17001 ft 373 kts 99°
2026-05-07 00:50 28.28305 -15.70678 17003 ft 372 kts 99°
2026-05-07 00:50 28.27974 -15.67770 17012 ft 371 kts 99°
2026-05-07 00:50 28.27639 -15.64847 17012 ft 370 kts 99°
2026-05-07 00:50 28.27308 -15.61977 17008 ft 370 kts 99°
2026-05-07 00:51 28.26972 -15.59080 17013 ft 371 kts 100°
2026-05-07 00:51 28.26635 -15.56172 17016 ft 371 kts 100°
2026-05-07 00:51 28.26295 -15.53253 17018 ft 372 kts 100°
2026-05-07 00:51 28.25956 -15.50342 17016 ft 373 kts 100°
2026-05-07 00:52 28.25615 -15.47424 17011 ft 374 kts 100°
2026-05-07 00:52 28.25272 -15.44494 17201 ft 374 kts 99°
2026-05-07 00:52 28.24929 -15.41603 16999 ft 365 kts 96°
2026-05-07 00:52 28.24610 -15.38878 17039 ft 362 kts 95°
2026-05-07 00:53 28.24276 -15.36024 17047 ft 365 kts 95°
2026-05-07 00:53 28.23942 -15.33178 17047 ft 366 kts 95°
2026-05-07 00:53 28.23568 -15.30001 17049 ft 367 kts 95°
2026-05-07 00:54 28.23230 -15.27141 17043 ft 367 kts 95°
2026-05-07 00:54 28.22890 -15.24269 17032 ft 367 kts 95°
2026-05-07 00:54 28.22569 -15.21565 17037 ft 367 kts 95°
2026-05-07 00:54 28.22275 -15.19096 17044 ft 366 kts 95°
2026-05-07 00:55 28.21924 -15.16146 17046 ft 365 kts 95°
2026-05-07 00:55 28.21583 -15.13288 17036 ft 365 kts 95°
2026-05-07 00:55 28.21246 -15.10470 17047 ft 364 kts 95°
2026-05-07 00:55 28.20906 -15.07630 17046 ft 363 kts 95°
2026-05-07 00:56 28.20565 -15.04792 17045 ft 363 kts 95°
2026-05-07 00:56 28.20225 -15.01956 17046 ft 363 kts 95°
2026-05-07 00:56 28.19884 -14.99131 17040 ft 358 kts 95°
2026-05-07 00:56 28.19550 -14.96365 17029 ft 349 kts 95°
2026-05-07 00:57 28.19222 -14.93660 17038 ft 342 kts 95°
2026-05-07 00:57 28.18902 -14.91023 17025 ft 332 kts 95°
2026-05-07 00:57 28.18596 -14.88509 17024 ft 319 kts 95°
2026-05-07 00:57 28.18298 -14.86065 17022 ft 306 kts 95°
2026-05-07 00:58 28.18011 -14.83709 16958 ft 296 kts 95°
2026-05-07 00:58 28.17734 -14.81431 16844 ft 288 kts 95°
2026-05-07 00:58 28.17630 -14.79179 16583 ft 283 kts 84°
2026-05-07 00:58 28.17756 -14.76952 16291 ft 282 kts 81°
2026-05-07 00:59 28.18100 -14.72533 15754 ft 280 kts 81°
2026-05-07 00:59 28.18260 -14.70362 15503 ft 279 kts 82°
2026-05-07 00:59 28.18414 -14.68170 15222 ft 279 kts 82°
2026-05-07 01:00 28.18567 -14.65914 14468 ft 298 kts 83°
2026-05-07 01:00 28.18729 -14.63456 13444 ft 325 kts 84°
2026-05-07 01:00 28.18897 -14.60804 12488 ft 347 kts 84°
2026-05-07 01:00 28.19068 -14.58001 11786 ft 372 kts 85°
2026-05-07 01:01 28.19252 -14.54909 11269 ft 410 kts 85°
2026-05-07 01:01 28.19421 -14.52030 10845 ft 418 kts 86°
2026-05-07 01:01 28.19609 -14.48755 10358 ft 413 kts 86°
2026-05-07 01:01 28.19795 -14.45519 9874 ft 409 kts 86°
2026-05-07 01:02 28.19976 -14.42325 9354 ft 403 kts 86°
2026-05-07 01:02 28.20155 -14.39175 8836 ft 398 kts 85°
2026-05-07 01:02 28.20334 -14.36040 8331 ft 396 kts 85°
2026-05-07 01:02 28.20509 -14.32942 7838 ft 391 kts 85°
2026-05-07 01:03 28.20683 -14.29874 7343 ft 388 kts 84°
2026-05-07 01:03 28.20854 -14.26838 6863 ft 384 kts 85°
2026-05-07 01:03 28.21023 -14.23839 6380 ft 378 kts 85°
2026-05-07 01:03 28.21187 -14.20922 5951 ft 372 kts 85°
2026-05-07 01:04 28.21348 -14.18015 5549 ft 364 kts 85°
2026-05-07 01:04 28.21505 -14.15198 5210 ft 351 kts 83°
2026-05-07 01:04 28.21657 -14.12486 4963 ft 338 kts 84°
2026-05-07 01:04 28.21797 -14.09875 4712 ft 326 kts 84°
2026-05-07 01:05 28.21937 -14.07331 4480 ft 317 kts 84°
2026-05-07 01:05 28.22070 -14.04902 4249 ft 307 kts 83°
2026-05-07 01:05 28.22201 -14.02519 4002 ft 298 kts 84°
2026-05-07 01:05 28.22324 -14.00233 3772 ft 284 kts 83°
2026-05-07 01:06 28.22445 -13.98045 3544 ft 271 kts 82°
2026-05-07 01:06 28.22559 -13.95955 3300 ft 260 kts 83°
2026-05-07 01:06 28.22666 -13.93962 3076 ft 243 kts 82°
2026-05-07 01:06 28.22801 -13.92134 2880 ft 219 kts 72°
2026-05-07 01:07 28.23554 -13.90828 2799 ft 188 kts 32°
2026-05-07 01:07 28.24594 -13.90076 2779 ft 174 kts 25°
2026-05-07 01:07 28.25699 -13.89554 2792 ft 171 kts 21°
2026-05-07 01:07 28.26824 -13.89061 2803 ft 175 kts 21°
2026-05-07 01:08 28.27953 -13.88559 2811 ft 172 kts 21°
2026-05-07 01:08 28.29064 -13.88059 2809 ft 170 kts 21°
2026-05-07 01:08 28.30157 -13.87562 2817 ft 168 kts 22°
2026-05-07 01:08 28.31242 -13.87067 2795 ft 169 kts 21°
2026-05-07 01:09 28.32440 -13.86820 2427 ft 175 kts
2026-05-07 01:09 28.33597 -13.86798 2187 ft 159 kts
2026-05-07 01:09 28.34661 -13.86737 1943 ft 146 kts
2026-05-07 01:09 28.35640 -13.86698 1749 ft 137 kts
2026-05-07 01:10 28.36576 -13.86665 1568 ft 134 kts
2026-05-07 01:10 28.37519 -13.86610 1339 ft 140 kts
2026-05-07 01:10 28.38491 -13.86573 1207 ft 140 kts
2026-05-07 01:10 28.39482 -13.86583 1075 ft 146 kts
2026-05-07 01:11 28.40498 -13.86560 853 ft 148 kts
2026-05-07 01:11 28.41514 -13.86512 650 ft 141 kts
2026-05-07 01:11 28.42478 -13.86495 418 ft 138 kts
2026-05-07 01:11 28.43434 -13.86442 222 ft 138 kts
2026-05-07 01:12 28.44370 -13.86407 73 ft 130 kts
2026-05-07 01:12 28.45134 -13.86381 77 ft 64 kts
2026-05-07 01:12 28.45362 -13.86373 80 ft 10 kts
2026-05-07 01:12 28.45406 -13.86419 81 ft 10 kts 280°
2026-05-07 01:13 28.45408 -13.86493 87 ft 9 kts 271°
2026-05-07 01:13 28.45393 -13.86560 95 ft 9 kts 219°
2026-05-07 01:13 28.45330 -13.86565 95 ft 10 kts 177°
2026-05-07 01:13 28.45264 -13.86568 97 ft 9 kts 183°
2026-05-07 01:14 28.45199 -13.86572 94 ft 9 kts 183°
2026-05-07 01:14 28.45136 -13.86574 94 ft 9 kts 182°
2026-05-07 01:14 28.45097 -13.86619 96 ft 9 kts 263°
2026-05-07 01:14 28.45098 -13.86687 97 ft 8 kts 271°
2026-05-07 01:15 28.45126 -13.86739 99 ft 8 kts 335°
2026-05-07 01:15 28.45173 -13.86742 98 ft 6 kts
2026-05-07 01:15 28.45213 -13.86741 98 ft 6 kts
2026-05-07 01:15 28.45252 -13.86739 98 ft 6 kts
2026-05-07 01:16 28.45306 -13.86738 98 ft 9 kts
2026-05-07 01:16 28.45359 -13.86737 98 ft 1 kts
2026-05-07 01:16 28.45370 -13.86738 99 ft 3 kts 347°
2026-05-07 01:16 28.45383 -13.86764 98 ft 6 kts 275°
2026-05-07 01:17 28.45384 -13.86801 98 ft 5 kts 271°
2026-05-07 01:17 28.45384 -13.86824 98 ft 0 kts 269°